Regional Weather Roundup
Issued by NWS Charleston, SC

Current Version | Previous Version | Text Only | Print | Product List | Glossary Off
Versions: 1 2 3 4 5 6 7 8 9 10 11 12 13 14 15 16 17 18 19 20 21 22 23 24 25 26 27 28 29 30 31 32 33 34 35 36 37 38 39 40 41 42 43 44 45 46 47 48 49 50

769
ASUS42 KCHS 051327
RWRCHS

REGIONAL WEATHER ROUNDUP
NATIONAL WEATHER SERVICE CHARLESTON SC
800 AM EST MON DEC 05 2016

NOTE: "FAIR" INDICATES FEW OR NO CLOUDS BELOW 12,000 FEET WITH NO
SIGNIFICANT WEATHER AND/OR OBSTRUCTIONS TO VISIBILITY.

NOT ALL STATIONS ARE QUALITY CONTROLLED. USE DATA WITH CAUTION...
ESPECIALLY DEWPOINT OBSERVATIONS.

SCZ027-030-031-034>040-042>050-051400-
...SOUTHEAST SOUTH CAROLINA...

CITY           SKY/WX    TMP DP  RH WIND       PRES   REMARKS
N CHARLESTON   CLOUDY    54  52  93 N8        29.99R FOG
WATERFRONT PRK   N/A     60  59  96 N7        29.94R
MOUNT PLEASANT CLOUDY    55  55 100 N9        29.98R FOG
JOHNS ISLAND   CLOUDY    57  57 100 NW8       29.98R FOG
PINOPOLIS        N/A     50  48  93 N7        29.90R
MONCKS CORNER  CLOUDY    48  48 100 N8        30.01R
SUMMERVILLE    NOT AVBL
BEAUFORT MCAS  CLOUDY    56  54  93 N13       29.96R FOG
BEAUFORT ARPT  CLOUDY    61  59  94 N8        29.96R FOG
HILTON HEAD IS MOCLDY    66  64  94 S10       29.94F
WALTERBORO     CLOUDY    50 N/A N/A N7        30.01R
ALLENDALE      FOG       48  48 100 N7        30.01R VSB 1

...SOUTHERN MIDLANDS AND PEE DEE...

CITY           SKY/WX    TMP DP  RH WIND       PRES   REMARKS
GEORGETOWN     NOT AVBL
KINGSTREE      DRIZZLE   45  43  93 NW3       30.02R
ORANGEBURG     LGT RAIN  46  45  96 N6        30.01R FOG
BARNWELL       NOT AVBL
AIKEN          CLOUDY    43  43 100 CALM      30.05S
MANNING        NOT AVBL
COLUMBIA       CLOUDY    47  43  86 CALM      30.02S
SUMTER         CLOUDY    45  43  93 N7        30.01R
FLORENCE       CLOUDY    46  45  96 N10       30.02R
MYRTLE BEACH   RAIN      52  48  87 N15       30.00R FOG
N MYRTLE BEACH LGT RAIN  50  50 100 N7        29.97S

$$

GAZ063-065-086>088-099>101-113>116-118-119-134>141-150-051400-
...SOUTHEAST GEORGIA...

CITY           SKY/WX    TMP DP  RH WIND       PRES   REMARKS
SAVANNAH ARPT  CLOUDY    67  64  90 SW3       29.94R
HUNTER AAF     MOCLDY    66  66 100 S6        29.90F FOG
FORT STEWART   CLOUDY    66  64  93 CALM      29.91R
STATESBORO     RAIN      50  50 100 N8        30.01R
SYLVANIA       DRIZZLE  N/A N/A N/A N6        30.02R
CLAXTON        CLOUDY   N/A N/A N/A NW12G18   30.00R FOG

...CSRA...CENTRAL AND FAR SOUTHEAST GEORGIA...

CITY           SKY/WX    TMP DP  RH WIND       PRES   REMARKS
THOMSON        CLOUDY    47  47 100 SE5       30.05F
AUGUSTA-BUSH   LGT RAIN  48  45  89 N10       30.03R
AUGUSTA-DANIEL CLOUDY    46  42  86 N6        30.03R
SWAINSBORO     DRIZZLE   48  46  93 NE5       30.02R
VIDALIA        CLOUDY    50  50 100 N10       30.01R FOG
EASTMAN        CLOUDY    50  49  98 NE3       30.04R FOG
HAZLEHURST     DRZL/FOG  53  53 100 N13G18    29.99R VSB 1/2
ALMA           CLOUDY    66  66 100 SW7       29.94R
WAYCROSS       CLOUDY    69  69 100 SW7       29.94S
JESUP          CLOUDY    68  68 100 W6        29.94S
BAXLEY         CLOUDY    68  68 100 W5        29.95R
BRUNSWICK      CLOUDY    70  68  94 S12       29.94S
SAINT SIMONS   LGT RAIN  67  64  90 S9        29.94F

$$

SCZ027-028-034-036>038-045-046-048>050-GAZ119-141-051400-
...LAKE AND SUPPLEMENTAL COASTAL OBSERVATIONS...

STATION/POSITION TIME  TEMP    WIND        PRES    WAVE   SWELL
                       AIR SEA DIR/SP/G            HT/PER HT/PER/DIR
                 (UTC) (F)     (DEG/KT/KT) (MB)    (FT/S) (FT/S/D)
WINYAH BAY       1245   53     320/  7     1015.0R
LAKE MURRAY      1220   44     350/  2/  5 1016.3
ACE BASIN NERRS  1245   58     340/  4     1014.0R
FORT PULASKI     1300   65 62  200/  8/ 13 1013.5
SAPELO ISLAND    1300   67     200/  5     1014.0

$$

ANZ835-935-AMZ111-154-330-350-352-354-370-450-454-472-051400-
...C-MAN AND BUOY OBSERVATIONS...

STATION/POSITION TIME  TEMP    WIND        PRES    WAVE   SWELL
                       AIR SEA DIR/SP/G            HT/PER HT/PER/DIR
                 (UTC) (F)     (DEG/KT/KT) (MB)    (FT/S) (FT/S/D)
BUOY 41004       1150   74 74  220/ 21/ 25 1013.3    6/ 6   2/250/13
BUOY 41008       1250   67 65  170/ 16/ 19 1013.7F   4/ 6   2/ 50/ 9
FOLLY BEACH CMAN 1200   63     210/ 14/ 15 1013.8F
CAPERS NEARSHORE 1208   63 62  250/  6/ 10 1013.7F
FRIPP NEARSHORE  1308   65 61  210/ 12/ 17 1013.3F


STATION/POSITION TIME  TEMP    WIND        PRES    WAVE   SWELL
                       AIR SEA DIR/SP/G            HT/PER HT/PER/DIR
                 (UTC) (F)     (DEG/KT/KT) (MB)    (FT/S) (FT/S/D)
5E ST. MARYS GA  1300      65                N/A     3/ 6
FRYING PAN BUOY  1250   68 74  280/ 19/ 23 1013.8R
BUOY 41025       1250   71 74  230/ 27/ 33 1011.4F   6/ 6   3/210/11
CAPE LOOKOUT NC  1200   62     280/ 13/ 16 1012.7R
BUOY 41002       1150   71 73  190/ 19/ 21 1017.4    4/ 4   2/350/10
BUOY 41010       NOT AVBL
ST AUGUSTINE FL  1200   67 68  210/  3/  4 1016.7R


$$




USA.gov is the U.S. government's official web portal to all federal, state and local government web resources and services.